#timestamp,LO_Frequency,Hit,StdDev 
1665298815.9,286047005.0,N
1665298835.7,286047004.2,N
1665298855.6,286047003.6,N
1665298875.4,286047001.5,N
1665298895.2,286047004.0,N
1665298915.1,286047004.7,N
1665298916.0,286047004.7,N
1665298935.8,286047006.3,N
1665298955.7,286047006.8,N
1665298975.5,286047005.8,N
1665298995.3,286047004.6,N
1665299015.2,286047006.0,N
1665299035.0,286047007.5,Y
1665299035.9,286047007.5,P
1665299055.8,286047000.8,N
1665299075.6,286046998.7,N
1665299095.4,286047001.1,N
1665299115.3,286047000.8,N
1665299135.1,286046999.5,N
1665299155.9,286047002.2,N
1665299175.7,286047004.2,N
1665299195.5,286047001.6,N
1665299215.4,286047005.1,N
1665299235.2,286047006.7,N
1665299255.0,286047006.9,N
1665299255.9,286047006.9,N
1665299275.8,286047007.5,N
1665299295.6,286047005.6,N
1665299315.5,286047003.5,N
1665299335.3,286047001.9,N
1665299355.1,286047002.7,N
1665299375.9,286046998.2,N
1665299395.7,286046998.3,N
1665299415.5,286046999.1,N
1665299435.4,286046998.2,N
1665299455.2,286047002.8,N
1665299475.1,286047002.3,N
1665299476.0,286047002.3,N
1665299495.8,286047003.9,N
1665299515.6,286047003.3,N
1665299535.5,286047003.1,N
1665299555.3,286047003.4,N
1665299575.1,286047004.2,N
1665299595.9,286047001.3,N
1665299615.7,286047004.4,N
1665299635.6,286047003.2,N
1665299655.4,286047005.4,N
1665299675.2,286047005.9,N
1665299695.1,286047005.7,N
1665299696.0,286047005.7,N
1665299715.8,286047002.8,N
1665299735.6,286047000.0,N
1665299755.5,286046998.8,N
1665299775.3,286047000.7,N
1665299795.2,286046994.9,N
1665299815.9,286046994.5,N
1665299835.7,286046995.9,N
1665299855.6,286046997.6,N
1665299875.4,286046997.4,N
1665299895.2,286046998.6,N
1665299915.1,286046998.6,N
1665299916.0,286046998.6,N
1665299935.8,286046999.0,N
1665299955.7,286046998.5,N
1665299975.5,286046996.7,N
1665299995.3,286046996.1,N
1665300015.2,286046996.6,N
1665300035.0,286046998.5,N
1665300035.9,286046998.5,N
1665300055.7,286047000.7,N
1665300075.6,286046999.8,N
1665300095.4,286047000.2,N
1665300115.3,286047002.6,N
1665300135.1,286046999.1,N
1665300136.0,286046999.1,N
1665300155.8,286046997.7,N
1665300175.7,286046999.5,N
1665300195.5,286046999.1,N
1665300215.4,286046995.7,N
1665300235.2,286046995.0,N
1665300255.0,286046996.3,N
1665300255.9,286046996.3,N
1665300275.8,286046992.1,Y
1665300295.6,286046999.6,P
1665300315.4,286046997.2,P
1665300335.3,286046998.1,N
1665300355.1,286047002.5,N
1665300375.9,286047005.6,N
1665300395.7,286047005.3,N
1665300415.5,286047005.7,N
1665300435.4,286047005.5,N
1665300455.2,286047002.2,N
1665300475.0,286047005.5,N
1665300475.9,286047005.5,N
1665300495.8,286047005.6,N
1665300515.6,286047003.7,N
1665300535.5,286047003.0,N
1665300555.3,286047003.0,N
1665300575.1,286047005.2,N
1665300595.9,286047001.5,N
1665300615.7,286047001.8,N
1665300635.5,286047001.6,N
1665300655.4,286046998.5,N
1665300675.2,286046996.7,N
1665300695.1,286046997.2,N
1665300696.0,286046997.2,N
1665300715.8,286046996.1,N
1665300735.6,286046996.3,N
1665300755.5,286046997.8,N
1665300775.3,286046997.1,N
1665300795.1,286046996.7,N
1665300815.9,286046998.9,N
1665300865.7,286047003.0,E
1665300875.7,286047003.6,N
1665300895.5,286046999.7,P
1665300915.3,286046998.2,N
1665300935.2,286046998.3,N
1665300955.0,286046999.1,N
1665300955.9,286046999.1,N
1665300975.7,286047000.3,N
1665300995.6,286047000.6,N
1665301015.4,286046997.0,N
1665301035.3,286046999.4,N
1665301055.1,286046996.6,N
1665301056.0,286046996.6,N
1665301075.8,286046999.6,N
1665301095.7,286046997.1,N
1665301115.5,286046997.2,N
1665301135.3,286046998.7,N
1665301155.2,286046998.7,N
1665301175.0,286046998.3,N
1665301175.9,286046998.3,N
1665301195.8,286047000.4,N
1665301215.6,286047000.9,N
1665301235.4,286046998.8,N
1665301255.3,286046999.3,N
1665301275.1,286047000.8,N
1665301295.9,286047002.3,N
1665301315.7,286046999.9,N
1665301335.5,286047000.8,N
1665301355.4,286046998.6,N
1665301375.2,286046999.3,N
1665301395.0,286046999.0,N
1665301395.9,286046999.0,N
1665301415.8,286046995.7,Y
1665301435.6,286046999.6,P
1665301455.5,286046997.6,P
1665301475.3,286046994.9,P
1665301495.1,286046999.2,N
1665301515.9,286047001.0,N
1665301535.7,286047002.0,N
1665301555.5,286047004.1,N
1665301575.4,286047004.3,N
1665301595.2,286047001.9,N
1665301615.1,286047003.7,N
1665301616.0,286047003.7,N
1665301635.8,286047003.7,N
1665301655.6,286047002.9,N
1665301675.5,286047002.7,N
1665301695.3,286047003.9,N
1665301715.1,286047004.3,N
1665301735.9,286047001.4,N
1665301755.7,286047000.5,N
1665301775.6,286047002.4,N
1665301795.4,286047001.8,N
1665301815.2,286046998.7,N
1665301835.1,286047001.0,N
1665301836.0,286047001.0,N
1665301855.8,286046998.3,N
1665301875.6,286046999.1,N
1665301895.5,286046997.8,N
1665301915.3,286046999.1,N
1665301935.2,286046996.5,N
1665301955.9,286046995.7,N
1665301975.7,286046995.0,N
1665301995.6,286046996.9,N
1665302015.4,286047000.9,N
1665302035.2,286046999.1,N
1665302055.1,286046999.9,N
1665302056.0,286046999.9,N
1665302075.8,286047000.4,N
1665302095.7,286047000.2,N
1665302115.5,286047000.4,N
1665302135.3,286047000.8,N
1665302155.2,286046999.6,N
1665302175.0,286047002.4,N
1665302175.9,286047002.4,N
1665302195.8,286047002.5,N
1665302215.6,286046999.8,N
1665302235.4,286047002.4,N
1665302255.3,286046998.5,N
1665302275.1,286046999.7,N
1665302295.8,286047000.6,N
1665302315.7,286047000.2,N
1665302335.5,286046996.0,N
1665302355.4,286046996.3,N
1665302375.2,286046995.7,N
1665302395.0,286046997.9,N
1665302395.9,286046997.9,N
